Location: Moscow
(55.7500°N, 37.5830°E)
Time: 10:31:29
(UTC+03:00)

A-11 Canister half - Pass Details

Date: 01 December 2021
Orbit: 1516 x 1684 km, 47.2° (Epoch: 24 January)

Event Time Altitude Azimuth Distance (km) Brightness Sun altitude
Rises 07:23:36 0° 199° (SSW) 4,774 11.7 -9.3°
Reaches altitude 10° 07:27:24 10° 186° (S) 3,819 11.3 -8.8°
Maximum altitude 07:34:40 24° 137° (SE) 2,890 11.4 -7.9°
Drops below altitude 10° 07:42:06 10° 89° (E) 3,921 12.2 -7.0°
Sets 07:46:02 0° 77° (ENE) 4,927 12.5 -6.5°
